Northeast Philadelphia, PA

6:35 AM EDT on April 22, 2018 (GMT -0400)
Northeast Philadelphia

Weather History for KPNE - July, 2012

Change the Weather History Date:

Thursday, July 12, 2012

  Actual Average Record
Temperature  
Mean Temperature 77 °F -  
Max Temperature 90 °F 83 °F 93 °F (2011)
Min Temperature 66 °F 63 °F 55 °F (2002)
Cooling Degree Days 12    
Growing Degree Days 27 (Base 50)    
Moisture  
Dew Point 60 °F    
Average Humidity 56    
Maximum Humidity 90    
Minimum Humidity 34    
Precipitation  
Precipitation 0.00 in - - ()
Sea Level Pressure  
Sea Level Pressure 30.19 in    
Wind  
Wind Speed 3 mph (South)    
Max Wind Speed 10 mph    
Max Gust Speed -    
Visibility 10 miles    
Events      
Averages and records for this station are not official NWS values.
T = Trace of Precipitation, MM = Missing Value Source: NWS Daily Summary

Daily Weather History Graph

Daily Weather History Graph

Search for Another Location

Airport or City:

Astronomy

Jul. 12, 2012 Rise Set
Actual Time 5:41 AM EDT 8:29 PM EDT
Civil Twilight 5:09 AM EDT 9:01 PM EDT
Nautical Twilight 4:29 AM EDT 9:41 PM EDT
Astronomical Twilight 3:43 AM EDT 10:27 PM EDT
Moon 12:44 AM EDT (7/12) 2:59 PM EDT (7/12)
Length of Visible Light 15h 51m
Length of Day
14h 47m
Waning Crescent, 35% of the Moon is Illuminated
Jul 12
Waning Crescent
Jul 19
New
Jul 26
First Quarter
Aug 1
Full
Aug 9
Last Quarter

Hourly Weather History & Observations

Time (EDT) Temp. Heat Index Dew Point Humidity Pressure Visibility Wind Dir Wind Speed Gust Speed Precip Events Conditions
12:54 AM 73.0 °F - 63.0 °F 71% 30.20 in 10.0 mi SSE 4.6 mph - N/A   Overcast
1:54 AM 72.0 °F - 63.0 °F 73% 30.20 in 10.0 mi Calm Calm - N/A   Partly Cloudy
2:54 AM 71.1 °F - 63.0 °F 75% 30.19 in 10.0 mi Calm Calm - N/A   Mostly Cloudy
3:54 AM 70.0 °F - 63.0 °F 78% 30.18 in 10.0 mi Calm Calm - N/A   Partly Cloudy
4:54 AM 69.1 °F - 63.0 °F 81% 30.19 in 10.0 mi Calm Calm - N/A   Scattered Clouds
5:54 AM 66.0 °F - 63.0 °F 90% 30.20 in 10.0 mi Calm Calm - N/A   Mostly Cloudy
6:54 AM 69.1 °F - 64.0 °F 84% 30.21 in 10.0 mi Calm Calm - N/A   Partly Cloudy
7:54 AM 73.9 °F - 64.0 °F 71% 30.22 in 10.0 mi NNE 3.5 mph - N/A   Clear
8:54 AM 75.9 °F - 62.1 °F 62% 30.22 in 10.0 mi East 3.5 mph - N/A   Clear
9:54 AM 81.0 °F 81.3 °F 59.0 °F 47% 30.21 in 10.0 mi Calm Calm - N/A   Clear
10:54 AM 82.0 °F 81.4 °F 55.0 °F 39% 30.21 in 10.0 mi Variable 3.5 mph - N/A   Clear
11:54 AM 86.0 °F 84.7 °F 55.9 °F 36% 30.21 in 10.0 mi East 5.8 mph - N/A   Clear
12:54 PM 86.0 °F 84.7 °F 55.9 °F 36% 30.20 in 10.0 mi Calm Calm - N/A   Clear
1:54 PM 88.0 °F 86.7 °F 57.0 °F 35% 30.19 in 10.0 mi ESE 9.2 mph - N/A   Clear
2:54 PM 88.0 °F 86.7 °F 57.0 °F 35% 30.17 in 10.0 mi SW 8.1 mph - N/A   Scattered Clouds
3:54 PM 88.0 °F 86.7 °F 57.0 °F 35% 30.16 in 10.0 mi Variable 3.5 mph - N/A   Partly Cloudy
4:54 PM 88.0 °F 86.5 °F 55.9 °F 34% 30.15 in 10.0 mi South 3.5 mph - N/A   Mostly Cloudy
5:54 PM 84.9 °F 84.8 °F 60.1 °F 43% 30.15 in 10.0 mi South 8.1 mph - N/A   Mostly Cloudy
6:54 PM 82.9 °F 83.7 °F 62.1 °F 49% 30.17 in 10.0 mi Variable 4.6 mph - N/A   Partly Cloudy
7:54 PM 81.0 °F 81.6 °F 60.1 °F 49% 30.17 in 10.0 mi Variable 4.6 mph - N/A   Clear
8:54 PM 80.1 °F 80.7 °F 59.0 °F 48% 30.18 in 10.0 mi SSW 8.1 mph - N/A   Clear
9:54 PM 78.1 °F - 57.9 °F 50% 30.20 in 10.0 mi SSW 10.4 mph - N/A   Clear
10:54 PM 75.9 °F - 61.0 °F 60% 30.20 in 10.0 mi SW 5.8 mph - N/A   Clear
11:54 PM 75.9 °F - 62.1 °F 62% 30.20 in 10.0 mi SW 4.6 mph - N/A   Clear